www.pogodaiklimat.ru

Погода и климат >> Архив погоды >> Бразилия >> Риу-Гранди-ду-Сул >> Трамандаи


ПОГОДА в Трамандаи

  • Прогноз погоды в Трамандаи
  • Монитор погоды в Трамандаи

АРХИВ ПОГОДЫ в Трамандаи

Время (UTC), дата Ветер
(напр.,м/с)
 
Видим.   Явления Облачность Т
(С)
Тd
(С)
f
(%)
Тe
(С)
Тes
(С)
Комфортность P
(гПа)
Po
(гПа)
Тmin
(С)
Tmax
(С)
R
(мм)
R24
(мм)
S
(см)
19 12.07 штиль 0 н/о н/о +18.9 -27.4 3 +18 +18 1011.2 1010.7
20 12.07 штиль 0 н/о н/о +18.0 -28.0 3 +18 +18 1012.8 1012.3
21 12.07 штиль 0 н/о н/о +18.2 -27.9 3 +18 +18 1013.5 1013.0
22 12.07 штиль 0 н/о н/о +16.4 -29.1 3 +17 +17 1014.0 1013.5
23 12.07 штиль 0 н/о н/о +17.2 -28.5 3 +17 +17 1013.8 1013.3
00 13.07 штиль 0 н/о н/о +16.9 -28.7 3 +17 +17 1014.2 1013.7
01 13.07 штиль 0 н/о н/о +16.8 -28.8 3 +17 +17 1016.2 1015.7 0.2
02 13.07 штиль 0 н/о н/о +16.1 -29.2 3 +16 +16 1015.7 1015.2
03 13.07 штиль 0 н/о н/о +16.1 +13.8 86 +16 +16 1014.7 1014.2 1
04 13.07 штиль 0
{2}
н/о н/о +16.2 -29.2 3 +16 +16 1014.5 1014.0
05 13.07 штиль 0
{3}
н/о н/о +16.1 -29.3 3 +16 +16 1014.1 1013.6 0.2
06 13.07 штиль 0
{2}
н/о н/о +16.1 -29.3 3 +16 +16 1013.6 1013.1 0.4
07 13.07 штиль 0
{3}
н/о н/о +16.6 -29.0 3 +17 +17 1013.1 1012.6 0.2
08 13.07 штиль 0
{4}
н/о н/о +17.1 -28.6 3 +17 +17 1012.8 1012.3
09 13.07 штиль 0
{2}
н/о н/о +16.8 -28.8 3 +17 +17 1012.7 1012.2
10 13.07 штиль 0
{2}
н/о н/о +17.0 -28.7 3 +17 +17 1013.3 1012.8
11 13.07 штиль 0
{2}
н/о н/о +16.2 +13.9 86 +16 +16 1014.4 1013.9
12 13.07 штиль 0 н/о н/о +17.3 -28.4 3 +17 +17 1015.3 1014.8
14 13.07 штиль 0
{2}
н/о н/о +18.6 +16.1 85 +19 +19 1016.0 1015.5
15 13.07 штиль 0 н/о н/о +16.3 -29.1 3 +16 +16 1015.5 1015.0
17 13.07 штиль 0
{1}
н/о н/о +15.6 -29.6 3 +16 +16 1015.6 1015.1
18 13.07 штиль 0
{3}
н/о н/о +15.1 -30.0 3 +15 +15 1015.8 1015.3
19 13.07 штиль 0
{2}
н/о н/о +14.6 -30.3 3 +15 +15 1016.2 1015.6 0.2
20 13.07 штиль 0
{1}
н/о н/о +14.3 -30.5 3 +15 +15 1015.2 1014.6 1
21 13.07 штиль 0
{2}
н/о н/о +14.1 -30.6 3 +14 +14 1015.3 1014.7 0.8
22 13.07 штиль 0 н/о н/о +14.2 -30.6 3 +14 +14 1016.0 1015.4 0.2
23 13.07 штиль 0
{2}
н/о н/о +14.2 -30.6 3 +14 +14 1015.7 1015.1 1
00 14.07 штиль 0 н/о н/о +14.0 -30.7 3 +14 +14 1017.3 1016.7 0.2
01 14.07 штиль 0 н/о н/о +13.9 -30.8 3 +14 +14 1017.4 1016.8 0.4
02 14.07 штиль 0 н/о н/о +13.8 -30.8 3 +14 +14 1017.6 1017.0 0.2
03 14.07 штиль 0 н/о н/о +13.9 +14 +14 1017.2 1016.6 2
04 14.07 штиль 0 н/о н/о +13.8 +14 +14 1016.7 1016.1 3
05 14.07 штиль 0 н/о н/о +13.7 +14 +14 1016.6 1016.0 1
06 14.07 штиль 0 н/о н/о +13.7 +14 +14 1016.2 1015.6 1
07 14.07 штиль 0 н/о н/о +13.4 +14 +14 1015.7 1015.1
08 14.07 штиль 0 н/о н/о +13.3 -31.2 3 +14 +14 1015.7 1015.1 0.2
09 14.07 штиль 0
{2}
н/о н/о +13.2 -31.3 3 +13 +13 1015.9 1015.3
10 14.07 штиль 0 н/о н/о +13.2 +14 +14 1016.3 1015.7
11 14.07 штиль 0 н/о н/о +13.1 -31.3 3 +13 +13 1016.7 1016.1
12 14.07 штиль 0 н/о н/о +13.1 -31.3 3 +13 +13 1017.7 1017.1
13 14.07 штиль 0 н/о н/о +13.1 -31.3 3 +13 +13 1018.8 1018.2
14 14.07 штиль 0 н/о н/о +13.1 -31.3 3 +13 +13 1018.2 1017.6
15 14.07 штиль 0
{3}
н/о н/о +12.9 -31.5 3 +13 +13 1017.9 1017.3
16 14.07 штиль 0
{3}
н/о н/о +12.8 -31.6 3 +13 +13 1017.6 1017.0
17 14.07 штиль 0
{2}
н/о н/о +13.6 -31.0 3 +14 +14 1016.1 1015.5
18 14.07 штиль 0
{3}
н/о н/о +13.5 -31.1 3 +14 +14 1016.5 1015.9
19 14.07 штиль 0
{2}
н/о н/о +13.3 -31.2 3 +14 +14 1017.0 1016.4
20 14.07 штиль 0
{2}
н/о н/о +13.2 -31.2 3 +13 +13 1017.3 1016.7
21 14.07 штиль 0
{2}
н/о н/о +13.0 -31.4 3 +13 +13 1018.0 1017.4
22 14.07 штиль 0 н/о н/о +12.8 -31.5 3 +13 +13 1018.6 1018.0
23 14.07 штиль 0 н/о н/о +12.3 -31.9 3 +13 +13 1019.2 1018.6
00 15.07 штиль 0 н/о н/о +11.3 -32.6 3 +12 +12 1019.5 1018.9
01 15.07 штиль 0 н/о н/о +10.6 -33.0 3 +11 +11 1019.5 1018.9
03 15.07 штиль 0
{1}
н/о н/о +9.9 -33.5 3 +10 +10 1019.4 1018.8
04 15.07 штиль 0
{2}
н/о н/о +10.0 -33.4 3 +10 +10 1019.3 1018.7
05 15.07 штиль 0
{1}
н/о н/о +9.4 -33.9 3 +10 +10 1018.7 1018.1
06 15.07 штиль 0 н/о н/о +9.6 -33.7 3 +10 +10 1018.4 1017.8
07 15.07 штиль 0 н/о н/о +9.9 -33.5 3 +10 +10 1018.2 1017.6
08 15.07 штиль 0
{2}
н/о н/о +10.4 -33.2 3 +11 +11 1018.5 1017.9
09 15.07 штиль 0 н/о н/о +10.4 -33.2 3 +11 +11 1019.0 1018.4
10 15.07 штиль 0
{1}
н/о н/о +10.4 -33.2 3 +11 +11 1019.2 1018.6
11 15.07 штиль 0 н/о н/о +10.6 -33.0 3 +11 +11 1019.1 1018.5
12 15.07 штиль 0
{2}
н/о н/о +11.2 -32.6 3 +12 +12 1019.7 1019.1
13 15.07 штиль 0
{2}
н/о н/о +12.0 -32.1 3 +12 +12 1020.1 1019.5
14 15.07 штиль 0 н/о н/о +12.8 -31.5 3 +13 +13 1020.1 1019.5
15 15.07 штиль 0
{2}
н/о н/о +13.8 -30.8 3 +14 +14 1019.7 1019.1
16 15.07 штиль 0
{1}
н/о н/о +14.1 -30.7 3 +14 +14 1018.8 1018.2
17 15.07 штиль 0
{3}
н/о н/о +13.3 -31.2 3 +14 +14 1018.1 1017.5
18 15.07 штиль 0
{2}
н/о н/о +13.4 -31.1 3 +14 +14 1017.3 1016.7
20 15.07 штиль 0 н/о н/о +12.4 -31.8 3 +13 +13 1018.4 1017.8
21 15.07 штиль 0 н/о н/о +11.8 -32.2 3 +12 +12 1018.8 1018.2
22 15.07 штиль 0
{3}
н/о н/о +11.7 -32.3 3 +12 +12 1019.4 1018.8
23 15.07 штиль 0 н/о н/о +11.7 -32.3 3 +12 +12 1019.5 1018.9
00 16.07 штиль 0
{3}
н/о н/о +11.0 -32.8 3 +11 +11 1019.8 1019.2
01 16.07 штиль 0
{4}
н/о н/о +10.7 -33.0 3 +11 +11 1020.1 1019.5
02 16.07 штиль 0
{5}
н/о н/о +10.8 -32.9 3 +11 +11 1020.6 1020.0
03 16.07 штиль 0
{2}
н/о н/о +10.3 +11 +11 1020.5 1019.9
04 16.07 штиль 0
{4}
н/о н/о +10.1 -33.4 3 +11 +11 1020.7 1020.1
05 16.07 штиль 0
{3}
н/о н/о +9.8 -33.6 3 +10 +10 1020.9 1020.3
06 16.07 штиль 0
{4}
н/о н/о +9.6 -33.7 3 +10 +10 1020.8 1020.2
07 16.07 штиль 0
{3}
н/о н/о +9.3 -33.9 3 +10 +10 1020.7 1020.1
08 16.07 штиль 0
{4}
н/о н/о +9.6 -33.7 3 +10 +10 1020.9 1020.3
09 16.07 штиль 0
{4}
н/о н/о +9.8 -33.6 3 +10 +10 1021.5 1020.9
10 16.07 штиль 0
{4}
н/о н/о +9.3 -33.9 3 +10 +10 1022.4 1021.8
11 16.07 штиль 0
{4}
н/о н/о +9.2 -34.0 3 +10 +10 1023.1 1022.5
12 16.07 З 1
{5}
н/о н/о +10.6 -33.0 3 +11 +11 1023.7 1023.1
13 16.07 З 2
{6}
н/о н/о +11.5 -32.4 3 +12 +12 1024.6 1024.0
14 16.07 З 2
{6}
н/о н/о +12.5 +13 +13 1024.8 1024.2
15 16.07 З 2
{6}
н/о н/о +13.6 +14 +14 1024.6 1024.0
16 16.07 З 2
{6}
н/о н/о +14.2 +14 +14 1023.9 1023.3
17 16.07 ЮЗ 3
{6}
н/о н/о +14.4 +14 +14 1024.0 1023.4
18 16.07 З 1
{6}
н/о н/о +14.7 +16 +16 1023.8 1023.2
19 16.07 штиль 0
{5}
н/о н/о +14.6 +15 +15 1024.0 1023.4
20 16.07 штиль 0
{4}
н/о н/о +14.1 +14 +14 1024.6 1024.0
21 16.07 штиль 0
{3}
н/о н/о +13.3 +14 +14 1025.2 1024.6
22 16.07 штиль 0
{5}
н/о н/о +12.7 +13 +13 1025.8 1025.2
23 16.07 штиль 0
{3}
н/о н/о +12.0 +12 +12 1026.5 1025.9
00 17.07 штиль 0
{2}
н/о н/о +11.8 +12 +12 1026.8 1026.2
01 17.07 штиль 0 н/о н/о +11.2 +12 +12 1027.2 1026.6
02 17.07 штиль 0
{2}
н/о н/о +10.8 +11 +11 1027.6 1027.0
03 17.07 штиль 0 н/о н/о +10.5 +11 +11 1027.3 1026.7
04 17.07 штиль 0 н/о н/о +9.9 +10 +10 1027.4 1026.8
05 17.07 штиль 0 н/о н/о +10.4 +11 +11 1027.2 1026.6
06 17.07 штиль 0 н/о н/о +10.9 +11 +11 1027.0 1026.4
07 17.07 штиль 0 н/о н/о +10.3 +11 +11 1026.4 1025.8
08 17.07 штиль 0 н/о н/о +11.0 +11 +11 1026.2 1025.6
09 17.07 штиль 0 н/о н/о +10.2 +11 +11 1026.9 1026.3
10 17.07 штиль 0 н/о н/о +9.6 +10 +10 1027.5 1026.9
11 17.07 штиль 0 н/о н/о +9.7 +10 +10 1028.4 1027.8
12 17.07 штиль 0 н/о н/о +11.0 +11 +11 1029.0 1028.4
13 17.07 штиль 0 н/о н/о +12.8 -31.5 3 +13 +13 1029.5 1028.9
14 17.07 штиль 0 н/о н/о +14.1 -30.6 3 +14 +14 1029.4 1028.8
15 17.07 штиль 0 н/о н/о +15.7 -29.5 3 +16 +16 1028.8 1028.2
16 17.07 штиль 0 н/о н/о +14.5 -30.4 3 +15 +15 1027.9 1027.3
17 17.07 штиль 0 н/о н/о +15.0 -30.1 3 +15 +15 1027.4 1026.8
18 17.07 штиль 0 н/о н/о +14.6 +15 +15 1027.2 1026.6
19 17.07 штиль 0 н/о н/о +15.4 -29.7 3 +16 +16 1026.9 1026.3
21 17.07 В 1
{4}
н/о н/о +15.1 -29.9 3 +17 +17 1026.4 1025.8
22 17.07 В 3
{4}
н/о н/о +15.3 -29.8 3 +15 +15 1026.6 1026.0
23 17.07 СВ 1
{5}
н/о н/о +15.5 -29.7 3 +17 +17 1026.7 1026.1
00 18.07 штиль 0
{4}
н/о н/о +15.1 -30.0 3 +15 +15 1026.6 1026.0
01 18.07 штиль 0
{4}
н/о н/о +14.8 -21.5 7 +15 +15 1026.9 1026.3
02 18.07 штиль 0
{4}
н/о н/о +14.9 -30.1 3 +15 +15 1027.0 1026.4
03 18.07 штиль 0
{3}
н/о н/о +15.2 -29.9 3 +15 +15 1027.1 1026.5
04 18.07 штиль 0
{4}
н/о н/о +15.2 -29.9 3 +15 +15 1026.6 1026.0
06 18.07 СВ 2
{5}
н/о н/о +15.4 -29.7 3 +16 +16 1025.5 1024.9
07 18.07 СВ 1
{5}
н/о н/о +15.0 -30.1 3 +17 +17 1025.0 1024.4
08 18.07 СВ 2
{6}
н/о н/о +14.9 -30.1 3 +15 +15 1024.8 1024.2
09 18.07 СВ 3
{5}
н/о н/о +15.2 -29.9 3 +15 +15 1024.7 1024.1
10 18.07 СВ 3
{6}
н/о н/о +15.4 -29.8 3 +15 +15 1025.2 1024.6
11 18.07 СВ 4
{7}
н/о н/о +15.6 -29.6 3 +15 +15 1025.8 1025.2 0.2
12 18.07 СВ 3
{6}
н/о н/о +15.9 -29.4 3 +16 +16 1026.3 1025.7
13 18.07 СВ 3
{5}
н/о н/о +16.8 -28.8 3 +17 +17 1026.9 1026.3
14 18.07 СВ 3
{6}
н/о н/о +17.6 -28.3 3 +18 +18 1026.4 1025.8
15 18.07 СВ 4
{6}
н/о н/о +17.1 -28.6 3 +17 +17 1025.8 1025.2
16 18.07 СВ 3
{7}
н/о н/о +16.6 -28.9 3 +17 +17 1024.9 1024.3
17 18.07 СВ 4
{6}
н/о н/о +17.5 -28.4 3 +17 +17 1024.0 1023.5
18 18.07 СВ 4
{7}
н/о н/о +17.4 -28.4 3 +17 +17 1023.5 1023.0
19 18.07 СВ 4
{6}
н/о н/о +17.1 -28.6 3 +17 +17 1023.4 1022.9
20 18.07 СВ 4
{6}
н/о н/о +16.6 -28.9 3 +16 +16 1023.6 1023.0
21 18.07 СВ 3
{6}
н/о н/о +16.4 -29.0 3 +16 +16 1023.8 1023.2
22 18.07 СВ 3
{6}
н/о н/о +16.6 -28.9 3 +17 +17 1023.8 1023.2
23 18.07 СВ 3
{6}
н/о н/о +16.4 -29.0 3 +16 +16 1023.9 1023.3
00 19.07 СВ 3
{6}
н/о н/о +16.4 -29.0 3 +16 +16 1024.1 1023.5
01 19.07 СВ 1
{6}
н/о н/о +16.2 -29.2 3 +18 +18 1024.6 1024.0
02 19.07 штиль 0
{5}
н/о н/о +16.0 -29.4 3 +16 +16 1024.6 1024.0
03 19.07 штиль 0
{4}
н/о н/о +15.8 -29.4 3 +16 +16 1024.8 1024.2
04 19.07 штиль 0
{3}
н/о н/о +15.8 -29.5 3 +16 +16 1024.6 1024.0
05 19.07 штиль 0
{3}
н/о н/о +15.8 -29.5 3 +16 +16 1024.4 1023.8
06 19.07 СВ 2
{4}
н/о н/о +15.9 -29.4 3 +16 +16 1024.0 1023.4
07 19.07 СВ 2
{5}
н/о н/о +15.9 -29.4 3 +16 +16 1023.3 1022.7
08 19.07 СВ 2
{5}
н/о н/о +15.9 -29.4 3 +16 +16 1022.8 1022.2
09 19.07 СВ 3
{5}
н/о н/о +15.7 -29.5 3 +16 +16 1022.6 1022.0
10 19.07 СВ 2
{5}
н/о н/о +15.5 -29.7 3 +16 +16 1022.7 1022.1
11 19.07 СВ 1
{4}
н/о н/о +16.0 -29.4 3 +18 +18 1022.6 1022.0
12 19.07 СВ 1
{4}
н/о н/о +16.0 -29.4 3 +17 +17 1023.2 1022.6
13 19.07 СВ 1
{5}
н/о н/о +17.8 -28.1 3 +19 +19 1023.1 1022.6
14 19.07 СВ 1
{5}
н/о н/о +17.6 -28.2 3 +19 +19 1022.6 1022.1
15 19.07 СВ 1
{4}
н/о н/о +17.8 -28.1 3 +19 +19 1021.8 1021.3
16 19.07 СВ 1
{4}
н/о н/о +18.4 -27.7 3 +20 +20 1021.3 1020.8
17 19.07 штиль 0
{4}
н/о н/о +18.1 -27.9 3 +18 +18 1020.9 1020.4
18 19.07 штиль 0
{2}
н/о н/о +17.3 -28.4 3 +17 +17 1020.2 1019.7

 

Местоположение метеостанции Трамандаи (Риу-Гранди-ду-Сул, Бразилия): широта -30.01 долгота -50.14 высота над уровнем моря 3 м.

В архиве по умолчанию представлена погода в Трамандаи за последнюю неделю. Архивные данные за месяц целиком и за предыдущие месяцы, начиная с января 2011 года, Вы можете получить, выбрав интересующий диапазон дат из раскрывающегося списка и нажав кнопку "Ввод!".


*Определитесь, кто Вы:
робот инопланетянин человек

Внимание! Время в таблицах - всемирное. Для получения местного времени необходимо прибавить поправку, которая равна -3 ч.

Смотрите также архив погоды в соседних городах и на ближайших метеорологических станциях:

Погода в Торресе (Санта-Катарина, Бразилия) (83 км)
Погода в Торресе (Санта-Катарина, Бразилия) (85 км)
Погода в Кампу-Боне (Риу-Гранди-ду-Сул, Бразилия) (96 км)
Погода в Канеле (Риу-Гранди-ду-Сул, Бразилия) (98 км)
Погода в Порту-Алегри (Риу-Гранди-ду-Сул, Бразилия) (99 км)
Погода в Порту-Алегри (Риу-Гранди-ду-Сул, Бразилия) (100 км)
Погода в Арарангуе (Санта-Катарина, Бразилия) (135 км)
Погода в Сан-Хосе-дос-Аусенте (Риу-Гранди-ду-Сул, Бразилия) (140 км)
Погода в Бон-Жезусе (Риу-Гранди-ду-Сул, Бразилия) (153 км)
Погода в Мостардасе (Риу-Гранди-ду-Сул, Бразилия) (156 км)

Пояснения к столбцам:

Ветер - указаны скорость ветра в м/с - средняя за 10 мин, порывы в срок и между сроками (в фигурных скобках) и направление, откуда дует ветер: С - северный, СВ - северо-восточный, В - восточный, ЮВ - юго-восточный, Ю - южный, ЮЗ - юго-западный, З - западный, СЗ - северо-западный.
Видимость - горизонтальная дальность видимости в метрах или километрах. При видимости от 1 до 10 км при отсутствии осадков обычно наблюдается дымка, при ухудшении видимости до 1 км и менее - туман. В сухую погоду видимость может ухудшаться дымом, пылью или мглою.
Явления - указаны атмосферные явления, наблюдавшиеся в срок или в последний час перед сроком; фигурными скобками обозначены явления, наблюдавшиеся между сроками (за 1-3 часа до срока); квадратными скобками обозначены град или гололедные отложения с указанием их диаметра в мм.
Облачность - указаны через наклонную черту общая и нижняя облачность в баллах и высота нижней границы облаков в метрах; квадратными скобками обозначены формы облаков: Ci - перистые, Cs - перисто-слоистые, Cc - перисто-кучевые, Ac - высококучевые, As - высокослоистые, Sc - слоисто-кучевые, Ns - слоисто-дождевые, Cu - кучевые, Cb - кучево-дождевые. Подробнее классификацию облаков см. в Атласе облаков (PDF).
T - Температура воздуха - температура, измеренная на высоте 2 м над землей.
Td - Температура точки росы - температура, при понижении до которой содержащийся в воздухе водяной пар достигнет насыщения.
f - Относительная влажность воздуха - влажноcть воздуха, измеренная на высоте 2 м над землей.
Te - Эффективная температура - температура, которую ощущает одетый по сезону человек в тени. Характеристика душности погоды. При расчете учитывается влияние влажности воздуха и скорости ветра на теплоощущения человека.
Tes - Эффективная температура на солнце - температура, которую ощущает человек, с поправкой на солнечный нагрев. Характеристика знойности погоды. Зависит от высоты солнца над горизонтом, облачности и скорости ветра. Ночью, в пасмурную погоду, а также при ветре 12 м/с и более поправка равна нулю.
P - Атмосферное давление - приведенное к уровню моря атмосферное давление.
Po - Атмосферное давление - измеренное на уровне метеостанции атмосферное давление.
Tmin - Минимальная температура - минимум температуры воздуха на высоте 2 м над землей.
Tmax - Максимальная температура - максимум температуры воздуха на высоте 2 м над землей.
R - Количество осадков - Количество выпавших осадков за период времени, мм. При наведении курсора мыши на число - период времени, за который выпало указанное количество осадков.
R24 - Количество осадков - Количество выпавших осадков за 24 часа, мм.
S - Снежный покров - Высота снежного покрова, см. При наведении курсора мыши на число - состояние снежного покрова и степень покрытия местности в баллах.